Location: Budapest
(47.4979°N, 19.0402°E)
Time: 02:39:21
(UTC+01:00)

Tiangong 2 - Pass Details

Date: 11 October 2017
Orbit: 386 x 390 km, 42.8° (Epoch: 15 December)

Event Time Altitude Azimuth Distance (km) Brightness Sun altitude
Exits shadow 04:27:43 10° 131° (SE) 1,405 4.2 -25.7°
Drops below altitude 10° 04:27:50 10° 129° (SE) 1,422 4.3 -25.6°
Sets 04:31:00 0° 96° (E) 2,283 6.0 -25.1°
